This is the latest recevied weather packets stored in our database for station/object IV3CGM-1. If no packets are shown the sender has not sent any weather packets the latest 1 day(s).
| Time | Temp. | Humidity | Pressure | Rain* | Wind** | Luminosity | Snow |
|---|---|---|---|---|---|---|---|
| 1778034980 | 7.78° C | 99% | - | - | 0.89 m/s, 63° | - | - |
| 1778034405 | 7.78° C | 99% | - | - | 0 m/s | - | - |
| 1778033818 | 7.78° C | 99% | - | - | 0 m/s | - | - |
| 1778033202 | 7.78° C | 99% | - | - | 0 m/s | - | - |
| 1778032581 | 7.78° C | 99% | - | - | 1.79 m/s, 312° | - | - |
| 1778032018 | 7.78° C | 99% | - | - | 0.89 m/s, 264° | - | - |
| 1778031427 | 7.78° C | 99% | - | - | 1.34 m/s, 217° | - | - |
| 1778030849 | 7.78° C | 99% | - | - | 1.79 m/s, 167° | - | - |
| 1778030229 | 7.78° C | 99% | - | - | 2.24 m/s, 167° | - | - |
| 1778029615 | 7.78° C | 99% | - | - | 2.24 m/s, 167° | - | - |
| 1778029004 | 7.78° C | 99% | - | - | 2.68 m/s, 162° | - | - |
| 1778028402 | 7.78° C | 99% | - | - | 1.34 m/s, 167° | - | - |
| 1778027779 | 7.78° C | 99% | - | - | 1.79 m/s, 222° | - | - |
| 1778027176 | 7.78° C | 99% | - | - | 1.79 m/s, 210° | - | - |
| 1778026617 | 7.78° C | 99% | - | - | 2.68 m/s, 233° | - | - |
| 1778026003 | 8.33° C | 99% | - | - | 1.79 m/s, 180° | - | - |
| 1778025426 | 8.33° C | 99% | - | - | 3.13 m/s, 167° | - | - |
| 1778024776 | 8.33° C | 99% | - | - | 2.24 m/s, 198° | - | - |
| 1778024178 | 8.33° C | 99% | - | - | 2.24 m/s, 180° | - | - |
| 1778023545 | 8.33° C | 99% | - | - | 2.68 m/s, 174° | - | - |
| 1778022907 | 8.33° C | 99% | - | - | 2.68 m/s, 167° | - | - |
| 1778022329 | 8.33° C | 99% | - | - | 2.68 m/s, 138° | - | - |
| 1778021741 | 8.33° C | 99% | - | - | 2.68 m/s, 217° | - | - |
| 1778021178 | 8.33° C | 99% | - | - | 5.36 m/s, 174° | - | - |
| 1778020555 | 8.33° C | 99% | - | - | 3.13 m/s, 174° | - | - |
* Rain since midnight (hover to see other rain measurements)
** Current wind speed in m/s (hover to see current wind gust speed)